QPF
0.00 0.01 0.00 0.00 0.00 0.00 0.00 0.00 0.00 0.00 0.00 0.00 0.00 0.00 0.00 0.00 0.00 0.00 0.00 0.00 0.00 0.00 0.00 0.00 0.00 0.00 0.00 0.00 0.00 0.00 0.00 0.00 0.00 0.00 0.00 0.00 0.00 0.00 0.00 0.00 0.00 0.00 0.00 0.00
0.01 0.00 0.00 0.00 0.00 0.00 0.00 0.00 0.00 0.00 0.00 0.00 0.00 0.00 0.00 0.00 0.00 0.00 0.00 0.00 0.00 0.00 0.00 0.00 0.00 0.00 0.00 0.00 0.00 0.00 0.00 0.00 0.00 0.00 0.00 0.00 0.00 0.00 0.00 0.00 0.00 0.00 0.00 0.00
0.00 0.00 0.00 0.00 0.00 0.00 0.00 0.00 0.00 0.00 0.00 0.00 0.00 0.00 0.00 0.00 0.00 0.00 0.00 0.00 0.00 0.00 0.00 0.00 0.00 0.00 0.00 0.00 0.00 0.00 0.00 0.00 0.00 0.00 0.00 0.00 0.00 0.00 0.00 0.00 0.00 0.00 0.00 0.00
0.01 0.00 0.00 0.00 0.00 0.00 0.00 0.00 0.00 0.00 0.00 0.00 0.00 0.00 0.00 0.00 0.00 0.00 0.00 0.00 0.00 0.00 0.00 0.00 0.00 0.00 0.00 0.00 0.00 0.00 0.00 0.00 0.00 0.00 0.00 0.00 0.00 0.00 0.00 0.00 0.00 0.00 0.00 0.00
0.00 0.00 0.00 0.00 0.00 0.00 0.00 0.00 0.00 0.00 0.00 0.00 0.00 0.00 0.00 0.00 0.00 0.00 0.00 0.00 0.00 0.00 0.00 0.00 0.00 0.00 0.00 0.00 0.00 0.00 0.00 0.00 0.00 0.00 0.00 0.00 0.00 0.00 0.00 0.00 0.00 0.00 0.00 0.00
0.00 0.00 0.00 0.00 0.00 0.00 0.00 0.00 0.00 0.00 0.00 0.00 0.00 0.00 0.00 0.00 0.00 0.00 0.00 0.00 0.00 0.00 0.00 0.00 0.00 0.00 0.00 0.00 0.00 0.00 0.00 0.00 0.00 0.00 0.00 0.00 0.00 0.00 0.00 0.00 0.00 0.00 0.00 0.00
0.00 0.00 0.00 0.00 0.00 0.00 0.00 0.00 0.00 0.00 0.00 0.00 0.00 0.00 0.00 0.00 0.00 0.00 0.00 0.00 0.00 0.00 0.00 0.00 0.00 0.00 0.00 0.00 0.00 0.00 0.00 0.00 0.00 0.00 0.00 0.00 0.00 0.00 0.00 0.00 0.00 0.00 0.00 0.00
0.00 0.00 0.00 0.00 0.00 0.00 0.00 0.00 0.00 0.00 0.00 0.00 0.00 0.00 0.00 0.00 0.00 0.00 0.00 0.00 0.00 0.00 0.00 0.00 0.00 0.00 0.00 0.00 0.00 0.00 0.00 0.00 0.00 0.00 0.00 0.00 0.00 0.00 0.00 0.00 0.00 0.00 0.00 0.00
0.00 0.00 0.00 0.00 0.00 0.00 0.00 0.00 0.00 0.00 0.00 0.00 0.00 0.00 0.00 0.00 0.00 0.00 0.00 0.00 0.00 0.00 0.00 0.00 0.00 0.00 0.00 0.00 0.00 0.00 0.00 0.00 0.00 0.00 0.00 0.00 0.00 0.00 0.00 0.00 0.00 0.00 0.00 0.00
0.00 0.00 0.00 0.00 0.00 0.00 0.00 0.00 0.00 0.00 0.00 0.00 0.00 0.00 0.00 0.00 0.00 0.00 0.00 0.00 0.00 0.00 0.00 0.00 0.00 0.00 0.00 0.00 0.00 0.00 0.00 0.00 0.00 0.00 0.00 0.00 0.00 0.00 0.00 0.00 0.00 0.00 0.00 0.00
0.00 0.00 0.00 0.00 0.00 0.00 0.00 0.00 0.00 0.00 0.00 0.00 0.00 0.00 0.00 0.00 0.00 0.00 0.00 0.00 0.00 0.00 0.00 0.00 0.00 0.00 0.00 0.00 0.00 0.00 0.00 0.00 0.00 0.00 0.00 0.00 0.00 0.00 0.00 0.00 0.00 0.00 0.00 0.00
0.00 0.00 0.00 0.00 0.00 0.00 0.00 0.00 0.00 0.00 0.00 0.00 0.00 0.00 0.00 0.00 0.00 0.00 0.00 0.00 0.00 0.00 0.00 0.00 0.00 0.00 0.00 0.00 0.00 0.00 0.00 0.00 0.00 0.00 0.00 0.00 0.00 0.00 0.00 0.00 0.00 0.00 0.00 0.00
0.00 0.00 0.00 0.00 0.00 0.00 0.00 0.00 0.00 0.00 0.00 0.00 0.00 0.00 0.00 0.00 0.00 0.00 0.00 0.00 0.00 0.00 0.00 0.00 0.00 0.00 0.00 0.00 0.00 0.00 0.00 0.00 0.00 0.00 0.00 0.00 0.00 0.00 0.00 0.00 0.00 0.00 0.00 0.00
0.00 0.00 0.00 0.00 0.00 0.00 0.00 0.00 0.00 0.00 0.00 0.00 0.00 0.00 0.00 0.00 0.00 0.00 0.00 0.00 0.00 0.00 0.00 0.00 0.00 0.00 0.00 0.00 0.00 0.00 0.00 0.00 0.00 0.00 0.00 0.00 0.00 0.00 0.00 0.00 0.00 0.00 0.00 0.00
0.00 0.00 0.00 0.00 0.00 0.00 0.00 0.00 0.00 0.00 0.00 0.00 0.00 0.00 0.00 0.00 0.00 0.00 0.00 0.00 0.00 0.00 0.00 0.00 0.00 0.00 0.00 0.00 0.00 0.00 0.00 0.00 0.00 0.00 0.00 0.00 0.00 0.00 0.00 0.00 0.00 0.00 0.00 0.00
0.00 0.00 0.00 0.00 0.00 0.00 0.00 0.00 0.00 0.00 0.00 0.00 0.00 0.00 0.00 0.00 0.00 0.00 0.00 0.00 0.00 0.00 0.00 0.00 0.00 0.00 0.00 0.00 0.00 0.00 0.00 0.00 0.00 0.00 0.00 0.00 0.00 0.00 0.00 0.00 0.00 0.00 0.00 0.00
0.00 0.00 0.00 0.00 0.00 0.00 0.00 0.00 0.00 0.00 0.00 0.00 0.00 0.00 0.00 0.00 0.00 0.00 0.00 0.00 0.00 0.00 0.00 0.00 0.00 0.00 0.00 0.00 0.00 0.00 0.00 0.00 0.00 0.00 0.00 0.00 0.00 0.00 0.00 0.00 0.00 0.00 0.00 0.00
0.00 0.00 0.00 0.00 0.00 0.00 0.00 0.00 0.00 0.00 0.00 0.00 0.00 0.00 0.00 0.00 0.00 0.00 0.00 0.00 0.00 0.00 0.00 0.00 0.00 0.00 0.00 0.00 0.00 0.00 0.00 0.00 0.00 0.00 0.00 0.00 0.00 0.00 0.00 0.00 0.00 0.00 0.00 0.00
0.00 0.00 0.00 0.00 0.00 0.00 0.00 0.00 0.00 0.00 0.00 0.00 0.00 0.00 0.00 0.00 0.00 0.00 0.00 0.00 0.00 0.00 0.00 0.00 0.00 0.00 0.00 0.00 0.00 0.00 0.00 0.00 0.00 0.00 0.00 0.00 0.00 0.00 0.00 0.00 0.00 0.00 0.00 0.00
0.00 0.00 0.00 0.00 0.00 0.00 0.00 0.00 0.00 0.00 0.00 0.00 0.00 0.00 0.00 0.00 0.00 0.00 0.00 0.00 0.00 0.00 0.00 0.00 0.00 0.00 0.00 0.00 0.00 0.00 0.00 0.00 0.00 0.00 0.00 0.00 0.00 0.00 0.00 0.00 0.00 0.00 0.00 0.00
0.00 0.00 0.00 0.00 0.00 0.00 0.00 0.00 0.00 0.00 0.00 0.00 0.00 0.00 0.00 0.00 0.00 0.00 0.00 0.00 0.00 0.00 0.00 0.00 0.00 0.00 0.00 0.00 0.00 0.00 0.00 0.00 0.00 0.00 0.00 0.00 0.00 0.00 0.00 0.00 0.00 0.00 0.00 0.00
0.00 0.00 0.00 0.00 0.00 0.00 0.00 0.00 0.00 0.00 0.00 0.00 0.00 0.00 0.00 0.00 0.00 0.00 0.00 0.00 0.00 0.00 0.00 0.00 0.00 0.00 0.00 0.00 0.00 0.00 0.00 0.00 0.00 0.00 0.00 0.00 0.00 0.00 0.00 0.00 0.00 0.00 0.00 0.00
0.00 0.00 0.00 0.00 0.00 0.00 0.00 0.00 0.00 0.00 0.00 0.00 0.00 0.00 0.00 0.00 0.00 0.00 0.00 0.00 0.00 0.00 0.00 0.00 0.00 0.00 0.00 0.00 0.00 0.00 0.00 0.00 0.00 0.00 0.00 0.00 0.00 0.00 0.00 0.00 0.00 0.00 0.00 0.00
0.00 0.00 0.00 0.00 0.00 0.00 0.00 0.00 0.00 0.00 0.00 0.00 0.00 0.00 0.00 0.00 0.00 0.00 0.00 0.00 0.00 0.00 0.00 0.00 0.00 0.00 0.00 0.00 0.00 0.00 0.00 0.00 0.00 0.00 0.00 0.00 0.00 0.00 0.00 0.00 0.00 0.00 0.00 0.00
0.00 0.00 0.00 0.00 0.00 0.00 0.00 0.00 0.00 0.00 0.00 0.00 0.00 0.00 0.00 0.00 0.00 0.00 0.00 0.00 0.00 0.00 0.00 0.00 0.00 0.00 0.00 0.00 0.00 0.00 0.00 0.00 0.00 0.00 0.00 0.00 0.00 0.00 0.00 0.00 0.00 0.00 0.00 0.00
0.00 0.00 0.00 0.00 0.00 0.00 0.00 0.00 0.00 0.00 0.00 0.00 0.00 0.00 0.00 0.00 0.00 0.00 0.00 0.00 0.00 0.00 0.00 0.00 0.00 0.00 0.00 0.00 0.00 0.00 0.00 0.00 0.00 0.00 0.00 0.00 0.00 0.00 0.00 0.00 0.00 0.00 0.00 0.00
MSLP
1014.81 1014.90 1013.94 1014.46 1015.00 1015.01 1015.03 1015.54 1015.74 1015.73 1015.65 1015.49 1015.34 1014.96 1014.72 1015.02 1015.71 1016.27 1016.90 1017.33 1017.77 1018.00 1018.33 1018.41 1018.40 1018.72 1019.00 1019.29 1019.49 1019.74 1019.90 1020.20 1020.23 1020.37 1020.60 1020.78 1021.12 1021.32 1021.54 1021.71 1021.76 1021.68 1021.62 1021.50
1015.01 1013.90 1014.31 1014.58 1014.96 1015.12 1015.04 1015.34 1015.84 1016.17 1015.98 1015.77 1015.81 1015.24 1014.97 1015.14 1015.35 1015.77 1016.57 1017.26 1017.88 1018.44 1018.73 1019.19 1019.36 1019.47 1019.70 1019.99 1020.25 1020.43 1020.61 1020.76 1020.74 1020.84 1021.12 1021.24 1021.49 1021.98 1022.20 1022.28 1022.28 1022.27 1022.11 1022.04
1014.18 1013.98 1014.02 1014.52 1014.95 1015.22 1015.12 1014.99 1015.65 1016.22 1016.43 1016.38 1016.28 1015.94 1015.41 1015.18 1015.15 1015.63 1016.40 1017.11 1017.77 1018.71 1019.16 1019.76 1020.09 1020.32 1020.45 1020.67 1020.92 1021.09 1021.25 1021.40 1021.42 1021.37 1021.35 1021.53 1021.76 1022.20 1022.75 1023.01 1022.93 1022.92 1022.89 1022.83
1014.18 1013.47 1013.80 1014.32 1014.50 1014.80 1015.11 1015.11 1015.30 1016.05 1016.62 1017.02 1016.80 1016.32 1015.59 1015.52 1015.52 1015.90 1016.56 1017.12 1017.93 1018.84 1019.56 1019.96 1020.60 1020.85 1021.14 1021.37 1021.36 1021.63 1021.89 1021.77 1021.73 1021.75 1022.07 1022.33 1022.70 1023.20 1023.85 1023.91 1023.87 1023.64 1023.53 1023.42
1013.93 1013.49 1013.92 1014.36 1014.37 1014.88 1015.19 1014.90 1015.68 1016.23 1016.70 1017.38 1017.66 1017.47 1015.75 1015.75 1016.02 1016.56 1017.11 1018.04 1018.54 1018.94 1019.60 1020.50 1021.03 1021.28 1021.67 1021.61 1021.76 1022.12 1022.47 1022.64 1022.54 1022.41 1022.72 1023.12 1023.50 1023.75 1024.07 1024.41 1024.45 1024.40 1024.27 1024.10
1014.72 1013.94 1013.53 1013.75 1014.37 1014.55 1015.30 1015.77 1016.66 1017.13 1017.64 1017.56 1017.39 1017.41 1016.75 1016.47 1016.18 1016.64 1017.35 1018.30 1019.70 1019.24 1020.34 1021.06 1021.45 1021.54 1022.13 1022.29 1022.35 1022.45 1022.94 1023.69 1023.69 1023.66 1023.51 1023.88 1024.36 1024.60 1024.83 1025.16 1025.27 1025.10 1024.89 1024.66
1015.35 1014.11 1013.71 1014.00 1014.77 1015.22 1015.13 1015.74 1017.48 1018.18 1018.46 1018.27 1017.92 1018.06 1016.79 1016.93 1016.67 1016.62 1017.24 1018.20 1019.56 1020.65 1020.28 1022.42 1021.47 1021.80 1022.06 1022.68 1023.02 1023.40 1023.18 1024.00 1024.77 1024.42 1024.36 1024.65 1024.92 1025.07 1025.49 1025.78 1025.96 1025.70 1025.52 1025.36
1015.51 1015.08 1013.93 1014.07 1013.86 1014.44 1015.20 1015.76 1016.83 1017.56 1018.42 1018.96 1018.83 1017.79 1016.77 1016.70 1017.13 1017.41 1017.84 1018.54 1019.32 1021.55 1020.66 1022.62 1022.03 1021.70 1022.16 1022.79 1023.43 1023.60 1023.83 1024.41 1025.12 1025.20 1025.33 1025.35 1025.53 1025.80 1026.15 1026.05 1026.05 1026.30 1026.07 1025.84
1015.23 1014.71 1014.39 1014.40 1013.84 1014.66 1015.86 1016.30 1017.12 1017.60 1018.76 1018.77 1018.78 1018.03 1017.01 1017.28 1017.91 1018.12 1018.67 1019.15 1019.82 1021.35 1021.77 1023.19 1022.66 1022.90 1022.43 1023.01 1024.24 1024.22 1024.36 1025.04 1025.34 1025.63 1026.02 1026.07 1026.27 1026.33 1026.57 1026.36 1026.41 1026.66 1026.69 1026.10
1014.97 1014.91 1014.56 1014.79 1014.52 1015.52 1015.51 1016.57 1017.33 1017.47 1018.46 1018.76 1018.62 1018.08 1017.31 1017.33 1017.94 1018.53 1019.04 1019.63 1020.60 1021.25 1022.09 1022.67 1023.80 1023.40 1023.01 1023.84 1024.72 1024.63 1024.76 1025.56 1026.15 1026.20 1026.53 1026.64 1026.84 1026.97 1027.03 1026.75 1027.02 1027.22 1026.98 1026.60
1015.15 1014.94 1015.45 1015.04 1015.16 1015.21 1016.16 1016.74 1017.45 1017.67 1017.95 1018.24 1018.56 1017.81 1016.99 1017.10 1017.35 1018.07 1018.71 1019.29 1020.14 1021.20 1021.71 1022.92 1023.53 1023.73 1024.14 1024.20 1024.55 1025.02 1025.60 1026.13 1026.59 1026.58 1026.95 1027.14 1027.36 1027.52 1027.43 1027.45 1027.75 1027.63 1027.50 1027.13
1014.98 1015.37 1015.95 1016.10 1016.01 1015.69 1015.68 1016.48 1016.72 1017.22 1018.28 1018.39 1017.98 1017.52 1017.02 1017.31 1017.48 1018.07 1018.68 1019.18 1019.97 1020.87 1021.98 1022.63 1023.56 1023.76 1024.31 1025.03 1025.49 1026.13 1026.59 1026.72 1027.01 1027.31 1027.54 1027.65 1027.70 1027.90 1028.10 1028.27 1028.23 1027.96 1027.75 1027.48
1014.99 1015.61 1016.38 1017.02 1016.97 1016.56 1016.39 1016.69 1016.82 1016.99 1017.47 1018.04 1018.11 1017.55 1017.06 1017.26 1017.71 1018.04 1018.65 1019.28 1019.92 1020.87 1021.82 1023.06 1023.65 1024.17 1024.80 1025.46 1026.11 1026.50 1026.81 1027.27 1027.62 1027.85 1027.93 1028.12 1028.21 1028.32 1028.33 1028.36 1028.31 1028.16 1028.15 1028.04
1014.35 1015.76 1016.62 1017.04 1016.65 1016.33 1016.74 1016.64 1016.61 1016.95 1018.15 1018.00 1017.55 1017.35 1017.28 1017.51 1017.68 1018.12 1018.81 1019.56 1020.37 1021.22 1022.02 1022.79 1023.67 1024.45 1025.26 1025.95 1026.41 1027.12 1027.67 1027.89 1028.06 1028.23 1028.28 1028.48 1028.75 1028.74 1028.78 1028.75 1028.72 1028.75 1028.62 1028.43
1014.69 1016.66 1017.55 1017.70 1017.17 1016.76 1016.66 1016.64 1016.72 1017.06 1016.88 1016.91 1016.97 1017.30 1017.31 1017.49 1017.63 1018.22 1018.87 1019.75 1020.59 1021.44 1022.27 1022.90 1023.79 1024.73 1025.55 1026.35 1027.03 1027.50 1027.99 1028.28 1028.32 1028.35 1028.51 1028.89 1028.97 1029.16 1029.19 1029.24 1029.16 1029.01 1028.99 1028.90
1015.91 1017.88 1017.68 1018.21 1017.77 1017.45 1017.66 1017.10 1016.73 1016.72 1016.82 1016.93 1017.12 1017.52 1017.68 1017.97 1018.08 1018.57 1019.00 1019.76 1020.39 1020.97 1021.91 1022.91 1023.91 1024.94 1025.82 1026.68 1027.33 1027.90 1028.23 1028.50 1028.47 1028.68 1028.96 1029.12 1029.21 1029.43 1029.65 1029.67 1029.58 1029.36 1029.07 1028.99
1016.47 1017.56 1018.79 1020.29 1019.52 1018.63 1018.74 1017.80 1016.94 1016.59 1016.65 1016.89 1017.22 1017.12 1017.71 1018.41 1018.83 1019.13 1019.55 1020.13 1020.66 1021.16 1021.94 1022.92 1023.95 1025.01 1025.95 1026.83 1027.42 1027.92 1028.30 1028.58 1028.76 1028.96 1029.37 1029.61 1029.82 1029.80 1029.84 1029.91 1029.88 1029.68 1029.43 1029.19
1016.60 1018.03 1019.71 1021.49 1020.89 1020.36 1018.60 1017.77 1017.02 1016.63 1016.82 1016.92 1017.05 1017.32 1018.00 1018.68 1019.34 1019.72 1020.20 1020.33 1020.95 1021.51 1022.30 1023.31 1024.34 1025.47 1026.44 1027.16 1027.77 1028.10 1028.35 1028.68 1029.04 1029.32 1029.66 1029.81 1029.94 1030.11 1030.09 1030.00 1030.12 1029.97 1029.63 1029.24
1016.79 1018.33 1021.13 1022.29 1022.17 1020.80 1018.73 1017.51 1016.95 1016.60 1017.29 1017.22 1017.46 1018.13 1018.65 1019.26 1019.86 1020.43 1020.89 1021.17 1021.51 1022.26 1022.97 1023.88 1024.92 1025.87 1026.80 1027.41 1027.74 1028.13 1028.50 1028.75 1029.26 1029.73 1030.13 1030.39 1030.50 1030.43 1030.36 1030.25 1030.27 1029.84 1029.59 1029.60
1018.10 1018.77 1020.59 1022.90 1022.28 1020.76 1018.29 1017.26 1016.96 1016.90 1017.50 1017.22 1017.75 1018.50 1019.16 1019.92 1020.77 1021.03 1021.47 1022.03 1022.66 1023.26 1023.95 1024.84 1025.76 1026.40 1027.04 1027.62 1027.89 1028.31 1028.77 1029.29 1029.81 1030.18 1030.43 1030.54 1030.56 1030.41 1030.36 1030.57 1030.47 1030.21 1030.15 1030.06
1020.38 1021.19 1022.44 1023.08 1022.52 1020.67 1018.76 1018.07 1017.93 1018.29 1018.30 1017.42 1018.00 1018.74 1019.50 1020.26 1020.81 1021.40 1022.23 1022.94 1023.44 1024.00 1024.81 1025.45 1025.95 1026.55 1027.08 1027.55 1028.11 1028.76 1029.18 1029.57 1030.02 1030.30 1030.53 1030.63 1030.60 1030.68 1030.80 1030.75 1030.67 1030.74 1030.44 1030.27
1020.98 1021.94 1023.21 1023.13 1022.37 1020.80 1018.86 1018.86 1018.68 1018.26 1018.29 1018.24 1018.68 1019.25 1020.09 1020.73 1021.45 1022.15 1022.98 1023.74 1024.29 1024.83 1025.43 1025.85 1026.38 1026.89 1027.44 1027.84 1028.32 1028.86 1029.36 1029.76 1030.07 1030.50 1030.74 1030.83 1030.99 1031.00 1031.00 1031.21 1031.08 1030.80 1030.59 1030.59
1021.92 1021.46 1021.59 1021.45 1020.85 1019.94 1019.37 1019.04 1018.50 1018.40 1018.60 1019.06 1019.37 1019.92 1020.41 1021.19 1021.89 1022.47 1023.16 1023.84 1024.29 1024.81 1025.60 1026.13 1026.65 1027.19 1027.65 1028.16 1028.59 1029.12 1029.39 1029.88 1030.33 1030.72 1030.94 1031.15 1031.31 1031.43 1031.37 1031.26 1030.96 1031.02 1030.87 1030.72
1021.65 1021.33 1021.14 1020.79 1020.38 1019.84 1019.43 1019.20 1019.01 1018.98 1019.14 1019.48 1019.77 1020.15 1020.58 1021.18 1021.95 1022.74 1023.47 1024.13 1024.66 1025.20 1025.73 1026.28 1026.89 1027.52 1027.91 1028.32 1028.53 1028.90 1029.46 1029.98 1030.51 1031.15 1031.38 1031.51 1031.61 1031.52 1031.36 1031.20 1031.00 1030.93 1030.96 1030.51
1022.09 1021.74 1021.28 1020.85 1020.05 1019.80 1019.54 1019.54 1019.34 1019.53 1019.69 1020.01 1020.33 1020.65 1021.14 1021.79 1022.38 1023.05 1023.79 1024.35 1024.87 1025.32 1025.81 1026.22 1026.78 1027.24 1027.55 1028.06 1028.48 1029.03 1029.64 1030.17 1030.83 1031.20 1031.43 1031.51 1031.53 1031.66 1031.55 1031.34 1030.96 1030.52 1030.23 1029.80
1021.68 1020.92 1020.94 1020.33 1019.52 1019.45 1019.70 1019.47 1019.77 1020.24 1020.52 1020.88 1021.29 1021.67 1021.97 1022.38 1022.77 1023.20 1023.76 1024.19 1024.87 1025.28 1025.77 1026.30 1026.54 1027.08 1027.28 1028.02 1028.68 1029.18 1029.66 1030.21 1030.81 1031.19 1031.37 1031.46 1031.58 1031.72 1031.58 1031.39 1030.95 1030.12 1029.56 1029.31
Thickness
5578 5582 5597 5602 5605 5613 5619 5610 5616 5627 5631 5638 5637 5652 5667 5671 5672 5671 5672 5674 5675 5676 5675 5679 5684 5684 5683 5681 5680 5678 5678 5675 5675 5674 5672 5670 5665 5662 5659 5656 5654 5652 5650 5649
5568 5584 5592 5597 5597 5600 5607 5604 5605 5610 5622 5630 5631 5643 5658 5662 5668 5671 5669 5667 5667 5666 5668 5667 5669 5670 5670 5670 5668 5667 5665 5664 5664 5663 5661 5660 5657 5652 5647 5644 5643 5640 5640 5639
5571 5578 5586 5587 5587 5591 5599 5606 5604 5604 5610 5619 5625 5627 5641 5657 5668 5667 5666 5665 5663 5658 5660 5658 5659 5658 5659 5659 5658 5656 5655 5654 5654 5654 5653 5651 5648 5643 5637 5632 5631 5628 5626 5625
5565 5581 5580 5581 5588 5593 5591 5604 5609 5600 5602 5599 5612 5605 5628 5642 5652 5657 5656 5657 5653 5652 5651 5652 5648 5649 5648 5646 5648 5647 5645 5645 5645 5645 5641 5638 5633 5627 5620 5618 5616 5616 5614 5612
5563 5572 5572 5572 5585 5590 5591 5602 5600 5599 5597 5594 5594 5596 5628 5633 5636 5640 5645 5641 5641 5645 5645 5640 5637 5636 5635 5637 5637 5636 5633 5632 5632 5632 5628 5623 5619 5615 5611 5606 5603 5602 5599 5598
5547 5566 5575 5581 5582 5589 5586 5584 5580 5582 5583 5586 5597 5600 5606 5615 5631 5635 5636 5634 5625 5634 5629 5625 5625 5626 5624 5624 5625 5625 5621 5615 5615 5613 5613 5609 5604 5601 5597 5592 5588 5587 5584 5582
5530 5554 5563 5572 5568 5573 5581 5585 5564 5567 5569 5580 5582 5587 5609 5608 5617 5626 5627 5626 5620 5614 5623 5608 5619 5616 5615 5613 5614 5610 5612 5606 5598 5599 5599 5595 5592 5589 5583 5578 5573 5572 5569 5567
5535 5546 5556 5563 5574 5575 5576 5579 5571 5571 5570 5565 5560 5584 5599 5608 5604 5609 5612 5614 5613 5599 5611 5600 5607 5611 5609 5606 5601 5599 5598 5593 5586 5584 5581 5581 5578 5574 5568 5566 5563 5556 5553 5550
5531 5542 5550 5555 5570 5572 5561 5566 5567 5559 5533 5561 5567 5577 5596 5597 5592 5597 5597 5602 5603 5594 5593 5584 5589 5591 5598 5593 5583 5583 5583 5578 5575 5570 5566 5565 5562 5559 5554 5553 5549 5542 5537 5537
5529 5538 5546 5548 5559 5555 5565 5564 5559 5556 5555 5552 5563 5571 5583 5586 5588 5587 5589 5590 5587 5583 5577 5576 5572 5577 5581 5576 5570 5572 5572 5565 5558 5557 5553 5550 5547 5544 5541 5540 5533 5526 5523 5521
5522 5534 5531 5544 5549 5554 5550 5548 5549 5557 5556 5557 5553 5569 5584 5586 5588 5587 5588 5587 5581 5573 5575 5570 5565 5564 5562 5564 5561 5558 5552 5547 5543 5544 5540 5536 5532 5527 5525 5521 5513 5510 5507 5506
5516 5523 5529 5528 5530 5547 5558 5551 5558 5553 5548 5540 5557 5572 5575 5577 5580 5580 5581 5583 5580 5575 5567 5563 5555 5555 5552 5547 5545 5540 5535 5533 5531 5528 5525 5522 5519 5513 5508 5502 5500 5498 5496 5493
5511 5512 5522 5523 5527 5534 5544 5547 5551 5551 5545 5543 5556 5563 5571 5569 5571 5574 5572 5571 5571 5562 5556 5548 5546 5544 5541 5536 5530 5527 5524 5520 5517 5514 5512 5507 5504 5500 5497 5493 5489 5486 5481 5476
5515 5507 5514 5530 5532 5539 5540 5544 5549 5549 5532 5536 5549 5560 5565 5563 5565 5566 5564 5560 5556 5555 5551 5545 5538 5533 5528 5523 5520 5515 5511 5508 5506 5502 5499 5494 5490 5487 5483 5479 5475 5469 5465 5461
5511 5497 5494 5490 5509 5535 5539 5543 5544 5546 5550 5552 5556 5551 5558 5561 5560 5560 5558 5552 5551 5550 5545 5541 5534 5527 5520 5514 5508 5504 5499 5495 5493 5491 5488 5482 5479 5473 5468 5463 5458 5454 5448 5443
5487 5481 5496 5496 5503 5514 5514 5530 5535 5543 5540 5541 5543 5547 5552 5554 5556 5555 5555 5554 5553 5550 5542 5532 5523 5515 5507 5501 5496 5492 5488 5485 5484 5480 5475 5470 5465 5459 5452 5446 5441 5436 5432 5426
5483 5474 5468 5470 5474 5518 5497 5516 5530 5537 5541 5539 5543 5551 5545 5546 5548 5550 5548 5545 5545 5543 5535 5523 5516 5508 5500 5493 5489 5483 5479 5475 5471 5467 5461 5454 5448 5443 5436 5430 5424 5419 5415 5411
5478 5462 5452 5459 5459 5492 5510 5500 5520 5538 5536 5538 5539 5540 5542 5541 5530 5528 5529 5539 5536 5531 5520 5512 5505 5496 5488 5482 5477 5473 5469 5463 5458 5452 5446 5440 5433 5426 5421 5416 5410 5406 5404 5403
5475 5464 5414 5455 5409 5464 5504 5509 5517 5534 5530 5530 5532 5528 5530 5522 5523 5526 5516 5518 5520 5513 5507 5500 5491 5484 5476 5472 5468 5463 5457 5452 5445 5437 5429 5422 5416 5411 5407 5404 5400 5399 5396 5390
5466 5464 5462 5417 5466 5461 5509 5512 5516 5526 5510 5522 5525 5521 5516 5513 5518 5519 5505 5501 5497 5494 5491 5484 5477 5472 5466 5460 5456 5451 5443 5435 5429 5421 5415 5409 5405 5403 5399 5394 5390 5387 5382 5376
5429 5414 5422 5384 5405 5445 5485 5501 5503 5493 5519 5513 5513 5511 5503 5513 5511 5500 5492 5489 5486 5483 5477 5472 5468 5463 5457 5449 5442 5436 5429 5423 5414 5408 5404 5401 5398 5393 5388 5383 5379 5373 5368 5363
5448 5435 5407 5363 5403 5482 5482 5491 5500 5502 5496 5501 5502 5503 5499 5491 5487 5484 5482 5476 5473 5469 5465 5460 5455 5449 5441 5435 5429 5424 5416 5409 5404 5400 5395 5392 5386 5383 5378 5370 5364 5360 5354 5346
5446 5440 5434 5456 5458 5468 5475 5484 5490 5489 5491 5496 5494 5494 5488 5484 5482 5476 5474 5469 5465 5460 5452 5446 5441 5436 5429 5421 5416 5411 5409 5403 5397 5391 5386 5382 5376 5371 5364 5357 5354 5345 5337 5329
5435 5438 5441 5455 5465 5465 5474 5481 5485 5490 5491 5487 5489 5486 5485 5488 5475 5470 5464 5457 5453 5448 5442 5435 5427 5421 5419 5415 5412 5408 5403 5396 5389 5383 5378 5372 5365 5359 5353 5346 5338 5328 5319 5312
5429 5438 5446 5446 5466 5466 5470 5472 5482 5484 5484 5482 5479 5477 5477 5473 5469 5460 5453 5449 5443 5439 5432 5426 5424 5421 5418 5411 5407 5401 5396 5389 5381 5374 5367 5361 5354 5344 5337 5330 5322 5316 5309 5300
5434 5449 5449 5461 5476 5478 5475 5475 5472 5473 5474 5469 5468 5466 5463 5458 5455 5452 5447 5442 5437 5432 5425 5422 5421 5415 5414 5406 5401 5394 5388 5380 5371 5365 5358 5350 5341 5331 5324 5315 5307 5302 5294 5284